GW3820 Weather Reports


time (UTC)temp
F
wind
direction
speed
knots
gust
knots
rain 1hr
in
rain 24hr
in
rain mn
in
humidity
%
barometer
mb
20260506181816 54 299 0.9 7.0 0.00 0.05 0.00 44 1012.4
20260506180836 54 253 5.2 8.7 0.00 0.05 0.00 44 1012.4
20260506175836 53 18 2.6 7.8 0.00 0.05 0.00 45 1012.5
20260506174816 53 305 5.2 8.7 0.00 0.05 0.00 46 1012.6
20260506173816 53 7 2.6 6.1 0.00 0.05 0.00 45 1012.8
20260506172835 53 322 5.2 10.4 0.00 0.05 0.00 44 1012.7
20260506171816 53 301 2.6 13.0 0.00 0.05 0.00 43 1012.9
20260506170816 53 316 6.1 9.6 0.00 0.05 0.00 45 1012.6
20260506165816 54 274 2.6 7.0 0.00 0.05 0.00 44 1012.4
20260506164816 54 307 7.0 9.6 0.00 0.05 0.00 40 1012.4
20260506163816 54 304 2.6 7.0 0.00 0.05 0.00 41 1012.3
20260506162856 55 305 5.2 8.7 0.00 0.05 0.00 41 1012.3
20260506161816 55 262 6.1 11.3 0.00 0.05 0.00 41 1012.3
20260506160835 55 256 5.2 8.7 0.00 0.05 0.00 41 1012.4
20260506155816 56 312 7.0 13.0 0.00 0.05 0.00 43 1012.2
20260506154816 55 308 4.3 8.7 0.00 0.05 0.00 42 1012.2
20260506153816 56 287 6.1 9.6 0.00 0.05 0.00 40 1012.0
20260506152836 56 321 3.5 6.1 0.00 0.05 0.00 43 1011.9
20260506151816 55 335 6.1 13.0 0.00 0.05 0.00 42 1011.7
20260506150816 55 278 4.3 8.7 0.00 0.05 0.00 43 1011.7
20260506145816 55 339 2.6 7.0 0.00 0.05 0.00 46 1011.6
20260506144835 55 233 3.5 6.1 0.00 0.05 0.00 46 1011.6
20260506143816 54 324 7.8 9.6 0.00 0.05 0.00 45 1011.5
20260506142816 53 261 4.3 9.6 0.00 0.05 0.00 44 1011.5
20260506141816 53 353 4.3 7.0 0.00 0.05 0.00 47 1011.6
20260506140816 53 325 2.6 5.2 0.00 0.05 0.00 50 1011.8
20260506135816 52 283 2.6 6.1 0.00 0.05 0.00 49 1011.4
20260506134816 52 315 4.3 7.0 0.00 0.05 0.00 48 1011.1
20260506133816 52 351 3.5 9.6 0.00 0.05 0.00 52 1011.3
20260506132816 51 1 6.1 8.7 0.00 0.05 0.00 53 1011.1
20260506131816 51 323 2.6 5.2 0.00 0.05 0.00 56 1010.7
20260506130816 50 2 3.5 7.0 0.00 0.05 0.00 56 1010.8
20260506125816 49 42 1.7 2.6 0.00 0.05 0.00 57 1010.7
20260506124816 49 313 4.3 6.1 0.00 0.05 0.00 61 1010.6
20260506123816 48 312 2.6 4.3 0.00 0.05 0.00 61 1010.6
20260506122816 48 296 2.6 3.5 0.00 0.05 0.00 62 1010.4
20260506121816 47 330 2.6 4.3 0.00 0.05 0.00 66 1010.3
20260506120816 46 319 0.9 4.3 0.00 0.05 0.00 68 1010.0
20260506115816 45 346 1.7 2.6 0.00 0.05 0.00 78 1010.2
20260506114816 43 316 1.7 2.6 0.00 0.05 0.00 79 1009.9
20260506113817 43 0.0 0.0 0.00 0.05 0.00 81 1009.9
20260506112816 43 0.0 0.0 0.00 0.05 0.00 82 1009.8
20260506111816 43 312 0.9 2.6 0.00 0.05 0.00 83 1009.6
20260506110816 43 336 0.0 0.9 0.00 0.05 0.00 83 1009.5
20260506105816 43 0.0 0.9 0.00 0.05 0.00 84 1009.3
20260506104816 44 311 0.0 2.6 0.00 0.05 0.00 86 1009.3
20260506103836 44 287 0.9 1.7 0.00 0.05 0.00 86 1009.0
20260506102816 44 0.0 0.0 0.00 0.05 0.00 86 1008.9
20260506101816 44 0.0 0.0 0.00 0.05 0.00 86 1008.9
20260506100816 44 0.0 0.0 0.00 0.05 0.00 86 1008.7
20260506095816 44 0.0 0.0 0.00 0.05 0.00 86 1008.6
20260506094836 44 292 0.0 0.9 0.00 0.05 0.00 86 1008.6
20260506093816 44 0.0 0.0 0.00 0.05 0.00 86 1008.8
20260506092816 45 0.0 0.0 0.00 0.05 0.00 86 1008.7
20260506091816 45 0.0 0.0 0.00 0.05 0.00 86 1008.6
20260506090816 45 0.0 0.0 0.00 0.05 0.00 86 1008.7
20260506085816 45 0.0 0.0 0.00 0.05 0.00 86 1008.4
20260506084816 45 0.0 0.0 0.00 0.05 0.00 86 1008.3
20260506083817 45 0.0 0.0 0.00 0.05 0.00 86 1008.5
20260506082837 45 0.0 0.0 0.00 0.05 0.00 86 1008.4
20260506081816 45 0.0 0.0 0.00 0.05 0.00 86 1008.3
20260506080816 45 0.0 0.0 0.00 0.05 0.00 86 1008.2
20260506072957 45 0.0 0.0 0.00 0.05 0.00 85 1008.5
20260506071836 45 0.0 0.0 0.00 0.05 0.00 85 1008.6
20260506070817 45 0.0 0.0 0.00 0.05 0.00 85 1008.3
20260506061816 46 0.0 0.0 0.00 0.05 0.00 84 1008.8
20260506060816 46 0.0 0.0 0.00 0.05 0.00 84 1008.9
20260506050816 46 0.0 0.0 0.00 0.07 0.00 83 1008.7
20260506044836 46 0.0 0.0 0.00 0.10 0.00 83 1008.8
20260506043816 46 0.0 0.9 0.00 0.10 0.00 83 1008.7
20260506042817 47 0.0 0.0 0.00 0.10 0.00 83 1008.9
20260506041816 47 0.0 0.0 0.01 0.11 0.00 83 1008.8
20260506040816 47 0.0 0.0 0.01 0.11 0.00 83 1009.0
20260506035816 47 0.0 0.0 0.01 0.11 0.11 82 1008.9
20260506034816 47 0.0 0.0 0.01 0.11 0.11 82 1008.5
20260506033816 47 0.0 0.0 0.01 0.11 0.11 82 1008.3
20260506032816 47 0.0 0.0 0.01 0.11 0.11 81 1008.3
20260506031836 47 0.0 0.0 0.01 0.10 0.10 81 1008.4
20260506030816 47 0.0 0.0 0.01 0.10 0.10 81 1008.6
20260506025817 47 0.0 0.0 0.01 0.10 0.10 80 1008.7
20260506024816 47 0.0 0.0 0.01 0.10 0.10 80 1008.8
20260506023816 47 0.0 0.0 0.02 0.10 0.10 79 1008.9
20260506022816 47 0.0 0.0 0.02 0.10 0.10 78 1008.8
20260506021816 48 0.0 0.0 0.01 0.09 0.09 77 1008.7
20260506020816 48 0.0 0.0 0.02 0.09 0.09 77 1008.8
20260506015816 49 0.0 0.0 0.02 0.09 0.09 76 1008.7
20260506014816 49 0.0 0.0 0.03 0.09 0.09 76 1008.5
20260506013817 50 0.0 0.0 0.02 0.08 0.08 75 1008.5
20260506012816 50 0.0 0.0 0.02 0.08 0.08 74 1008.1
20260506011816 51 267 0.0 0.9 0.02 0.08 0.08 73 1008.0
20260506010917 52 0.0 0.0 0.01 0.07 0.07 71 1007.9
20260506005816 52 0.0 0.0 0.01 0.07 0.07 70 1007.8
20260506004816 52 0.0 0.0 0.00 0.06 0.06 68 1007.8
20260506003836 53 0.0 0.0 0.00 0.06 0.06 67 1008.0
20260506002816 53 247 0.9 1.7 0.00 0.06 0.06 64 1008.0
20260506001816 53 302 1.7 3.5 0.00 0.09 0.06 60 1008.0
20260506000918 53 323 1.7 3.5 0.00 0.12 0.06 62 1008.0
20260505235817 54 258 0.9 1.7 0.00 0.17 0.06 64 1008.0
20260505234817 54 0.0 0.9 0.00 0.22 0.06 62 1007.6
20260505233837 54 269 1.7 3.5 0.00 0.22 0.06 62 1007.3
20260505232816 54 307 2.6 3.5 0.00 0.23 0.06 64 1007.1
20260505231816 54 310 0.9 1.7 0.00 0.48 0.06 65 1007.0
20260505230817 54 275 1.7 2.6 0.00 0.55 0.06 68 1007.2
20260505225816 54 234 0.0 0.9 0.00 0.55 0.06 66 1007.1
20260505224837 54 272 0.9 2.6 0.00 0.55 0.06 66 1007.3
20260505223817 54 334 0.9 1.7 0.00 0.55 0.06 66 1007.2
20260505222817 54 286 0.0 2.6 0.00 0.55 0.06 66 1007.3
20260505221816 55 230 0.9 1.7 0.00 0.55 0.06 66 1007.2
20260505220836 55 338 0.0 0.9 0.00 0.55 0.06 66 1007.2
20260505215837 54 241 1.7 2.6 0.00 0.55 0.06 65 1007.3
20260505214817 54 303 0.9 1.7 0.00 0.55 0.06 66 1007.4
20260505213836 54 289 1.7 2.6 0.00 0.55 0.06 65 1007.4
20260505212817 54 258 1.7 2.6 0.00 0.55 0.06 65 1007.3
20260505211837 54 219 0.9 2.6 0.00 0.55 0.06 65 1007.2
20260505210816 55 306 4.3 7.0 0.00 0.55 0.06 64 1007.4
20260505205837 55 266 1.7 3.5 0.00 0.55 0.06 64 1007.5
20260505204817 55 249 2.6 5.2 0.00 0.55 0.06 63 1007.5
20260505203816 55 269 2.6 8.7 0.00 0.55 0.06 64 1007.5
20260505202816 55 270 1.7 2.6 0.00 0.55 0.06 64 1007.6
20260505201817 55 286 1.7 6.1 0.00 0.55 0.06 62 1007.7
20260505200816 55 240 4.3 7.8 0.00 0.55 0.06 64 1007.8
20260505195816 55 245 2.6 4.3 0.00 0.55 0.06 64 1007.8
20260505194816 55 238 1.7 5.2 0.00 0.55 0.06 64 1007.8
20260505193837 54 303 1.7 3.5 0.00 0.55 0.06 67 1008.0
20260505192816 54 233 4.3 7.8 0.00 0.55 0.06 68 1008.0
20260505191817 54 244 2.6 5.2 0.00 0.55 0.06 67 1007.8
20260505190816 53 183 0.9 4.3 0.00 0.55 0.06 69 1007.9
20260505185817 53 251 1.7 7.0 0.00 0.55 0.06 68 1008.1
20260505184816 54 262 3.5 7.8 0.00 0.55 0.06 69 1008.1
20260505183816 54 228 2.6 8.7 0.00 0.55 0.06 66 1008.2
20260505182817 55 226 4.3 8.7 0.00 0.55 0.06 64 1008.0